Regional Weather Roundup
Issued by NWS

Home | Current Version | Previous Version | Text Only | Print | Product List | Glossary Off
Versions: 1 2 3 4 5 6 7 8 9 10 11 12 13 14 15 16 17 18 19 20 21 22 23 24 25 26 27 28 29 30 31 32 33 34 35 36 37 38 39 40 41 42 43 44 45 46 47 48 49 50

000
ASUS45 KBOU 271507
RWRCO

WEATHER ROUNDUP FOR COLORADO
NATIONAL WEATHER SERVICE DENVER/BOULDER CO
900 AM MDT WED AUG 27 2014

NOTE: "FAIR" INDICATES FEW OR NO CLOUDS BELOW 12000 FEET WITH NO
SIGNIFICANT WEATHER AND/OR OBSTRUCTIONS TO VISIBILITY.

COZ001>005-013-030-031-271600-
...NORTHWEST COLORADO...

CITY           SKY/WX    TMP DP  RH WIND       PRES   REMARKS
CRAIG          LGT RAIN  54  50  86 CALM      30.31S
HAYDEN         PTSUNNY   54  48  82 SW5       30.32S
MEEKER         PTSUNNY   55  52  89 CALM      30.31S
MOUNT WERNER   NOT AVBL
STEAMBOAT SPGS CLOUDY    52  49  90 CALM      30.32S
WALDEN         CLOUDY    50  46  87 S5        30.36S
$$

COZ006>008-011-271600-
...WEST CENTRAL VALLEYS...

CITY           SKY/WX    TMP DP  RH WIND       PRES   REMARKS
GRAND JUNCTION PTSUNNY   58  55  90 SE8       30.24R
MONTROSE       MOSUNNY   58  55  90 S7        30.32F
EAGLE          MOSUNNY   57  55  94 CALM      30.33F
RIFLE          PTSUNNY   58  54  86 CALM      30.28S
DELTA          RAIN      61  58  90 NE6       30.30R
NUCLA          MOSUNNY   55  52  88 CALM      30.35F
$$

COZ017>023-064>068-271600-
...SOUTHWEST COLORADO...

CITY           SKY/WX    TMP DP  RH WIND       PRES   REMARKS
DURANGO        CLOUDY    53  50  89 S3        30.38S
CORTEZ         CLOUDY    56  53  90 NE6       30.35S
PAGOSA SPRINGS CLOUDY    53  52  96 CALM      30.43R
TELLURIDE      NOT AVBL
WOLF CREEK PAS FOG       36  36 100 S10       30.60S VSB 1/4
$$

COZ009-010-012-014-032>034-037-058>063-271600-
...CENTRAL COLORADO...

CITY           SKY/WX    TMP DP  RH WIND       PRES   REMARKS
ASPEN          PTSUNNY   55  49  80 CALM      30.36F
BUENA VISTA    SUNNY     55  50  85 CALM      30.37F
COPPER MTN     CLOUDY    45  36  70 W7        30.57S
BERTHOUD PASS  FOG       34  34 100 NW16G22   30.59S VSB<1/4 WCI  23
COTTONWOOD PAS MOSUNNY   54  48  82 SE5       30.46S
GUNNISON       PTSUNNY   52  46  82 N3        30.41S
KREMMLING      PTSUNNY   55  50  82 E6        30.35F
LEADVILLE      MOSUNNY   50  43  77 N5        30.45S
SALIDA         SUNNY     57  52  82 NW3       30.41F
SUNLIGHT       CLOUDY    46  45  93 CALM      30.53S
WILKERSON PASS NOT AVBL
$$

COZ069>075-271600-
...SAN LUIS VALLEY/SANGRE DE CRISTO MOUNTAINS...

CITY           SKY/WX    TMP DP  RH WIND       PRES   REMARKS
ALAMOSA        SUNNY     58  50  75 S7        30.36S
LA VETA PASS   NOT AVBL
SAGUACHE       MOSUNNY   54  50  87 CALM      30.40S
$$

COZ035-036-038>040-271600-
...NORTHERN COLORADO FRONT RANGE...

CITY           SKY/WX    TMP DP  RH WIND       PRES   REMARKS
DENVER INTL AP CLOUDY    63  56  78 W7        30.18R
DMNS CITY PARK   N/A     63  55  75 N1G7      30.18R
AURORA         PTSUNNY   62  54  76 W2        30.20R
FRONT RANGE AP NOT AVBL
ERIE MUNI ARPT CLOUDY    64  56  78 N6        30.17S
BOULDER MUN AP CLOUDY    61  57  88 CALM      30.18R
CENTENNIAL     CLOUDY    61  51  70 W7        30.20R
BROOMFIELD     PTSUNNY   63  55  77 N9        30.20R
FORT COLLINS   CLOUDY    63  55  77 N6        30.19S
LONGMONT       CLOUDY    65  56  72 NE6       30.19R
$$

COZ041-046-047-076>085-087-088-271600-
...PIKES PEAK/PALMER DIVIDE AND SOUTHERN FOOTHILLS...

CITY           SKY/WX    TMP DP  RH WIND       PRES   REMARKS
COLO. SPRINGS  CLOUDY    60  56  86 S7        30.25S
A. F. ACADEMY  PTSUNNY   59  57  94 SE7       30.25F
ELLICOTT       CLOUDY    62  55  77 SE6       30.23S
FALCON         CLOUDY    58  56  91 S3        30.28S
FORT CARSON    PTSUNNY   60  56  87 E2        30.23R
LIMON          CLOUDY    62  58  86 SE14      30.21R
MONUMENT HILL  CLOUDY    59  54  82 CALM      30.25F
TRINIDAD       PTSUNNY   66  56  70 SW6       30.23R
$$

COZ042>045-048>051-090-091-271600-
...NORTHEAST COLORADO...

CITY           SKY/WX    TMP DP  RH WIND       PRES   REMARKS
GREELEY ARPT   CLOUDY    63  54  72 CALM      30.17R
AKRON          PTSUNNY   66  59  78 S13G24    30.16S
BURLINGTON     PTSUNNY   67  62  84 S15G22    30.16S
WRAY             N/A     67  63  86 S12       30.15R
STERLING       PTSUNNY   72  64  78 S7        30.13S
HOLYOKE        PTSUNNY   72  64  78 S9        30.15R
FORT MORGAN    CLOUDY    66  59  78 SE3       30.16S
$$

COZ086-089-092>099-271600-
...SOUTHEAST COLORADO...

CITY           SKY/WX    TMP DP  RH WIND       PRES   REMARKS
PUEBLO         PTSUNNY   63  58  83 CALM      30.17S
LA JUNTA       PTSUNNY   71  64  78 S7        30.13F
LAMAR          CLOUDY    71  64  78 SE10      30.12F
SPRINGFIELD      N/A     67  64  90 S16G24    30.16F
$$


USA.gov is the U.S. government's official web portal to all federal, state and local government web resources and services.